Location: Rounton
(54.4000°N, 1.3500°W)
Time: 11:17:39
(UTC+00:00)

Vanguard 1 - Visible Passes

Search period start: 23 February 2024 00:00
Search period end: 04 March 2024 00:00
Orbit: 653 x 3826 km, 34.3° (Epoch: 22 February)

Date Brightness Start Highest point End Pass type
(mag) Time Alt. Az. Time Alt. Az. Time Alt. Az.
23 Feb13.902:06:38SSE02:06:38SSE01:30:22Wvisible
23 Feb 13.2 18:51:27 10° S 19:02:18 23° SE 19:11:38 16° ESE visible
23 Feb 12.9 21:07:54 10° SW 21:23:15 39° SSE 21:24:18 39° SSE visible
23 Feb 13.3 23:28:16 10° WSW 23:36:57 30° SW 23:36:57 30° SW visible
24 Feb13.902:26:17SSE02:26:17SSE01:49:37Wvisible
24 Feb 13.1 19:10:12 10° SSW 19:21:50 27° SE 19:30:51 20° ESE visible
24 Feb 12.9 21:27:40 10° SW 21:43:15 40° S 21:43:30 40° S visible
24 Feb 13.4 23:48:33 10° WSW 23:56:09 26° WSW 23:56:09 26° WSW visible
25 Feb14.002:45:57S02:45:57S02:08:48Wvisible
25 Feb 13.0 19:29:19 10° SSW 19:41:29 31° SSE 19:50:00 23° ESE visible
25 Feb 12.9 21:47:35 10° WSW 22:02:39 41° S 22:02:39 41° S visible
26 Feb 13.5 00:09:00 10° WSW 00:15:17 23° WSW 00:15:17 23° WSW visible
26 Feb14.103:05:36S03:05:36S02:27:57Wvisible
26 Feb 12.9 19:48:42 10° SW 20:01:15 34° SSE 20:09:06 26° SE visible
26 Feb 13.0 22:07:36 10° WSW 22:21:44 40° SSW 22:21:44 40° SSW visible
27 Feb 13.7 00:29:35 10° W 00:34:24 19° WSW 00:34:24 19° WSW visible
27 Feb 13.2 17:52:38 10° S 18:01:03 20° SE 18:12:26 10° E visible
27 Feb 12.9 20:08:16 10° SW 20:21:07 36° SSE 20:28:10 30° SE visible
27 Feb 13.0 22:27:44 10° WSW 22:40:48 38° SSW 22:40:48 38° SSW visible
28 Feb 13.8 00:50:25 10° W 00:53:27 15° WSW 00:53:27 15° WSW visible
28 Feb 13.0 18:11:18 10° S 18:20:32 24° SE 18:33:39 10° E visible
28 Feb 12.9 20:28:00 10° SW 20:41:05 38° S 20:47:11 32° SE visible
28 Feb 13.1 22:47:59 10° WSW 22:59:50 34° SSW 22:59:50 34° SSW visible
29 Feb 13.9 01:11:37 10° W 01:12:28 11° WSW 01:12:28 11° WSW visible
29 Feb 12.9 18:30:22 10° SSW 18:40:08 27° SSE 18:53:33 11° ESE visible
29 Feb 12.9 20:47:52 10° SW 21:01:06 38° S 21:06:12 34° SSE visible
29 Feb 13.2 23:08:22 10° WSW 23:18:50 31° SW 23:18:50 31° SW visible
01 Mar 12.9 18:49:42 10° SSW 18:59:52 30° SSE 19:12:33 14° ESE visible
01 Mar 12.9 21:07:52 10° WSW 21:21:10 38° S 21:25:11 35° SSE visible
01 Mar 13.4 23:28:55 10° WSW 23:37:49 26° SW 23:37:49 26° SW visible
02 Mar 12.8 19:09:14 10° SW 19:19:41 32° SSE 19:31:32 17° ESE visible
02 Mar 12.9 21:27:58 10° WSW 21:41:16 36° S 21:44:11 35° S visible
02 Mar 13.5 23:49:43 10° WSW 23:56:48 22° SW 23:56:48 22° SW visible
03 Mar 12.8 19:28:58 10° SW 19:39:36 34° SSE 19:50:30 19° ESE visible
03 Mar 13.0 21:48:11 10° WSW 22:01:21 34° SSW 22:03:08 33° S visible
